,,Stat6,,Stat2,,Stat8,,Stat9,,Stat10,,Wind1,,Wind1,
time,status,PA1M_AVG,status,PR1M_SUM,status,RH1M_AVG,status,SR1M_AVG,status,TA1M_AVG,status,W1dAve1m,status,W1sAve1m,
2007-07-11, 00:00:00,VALID,917.234,VALID,0,VALID,99.5895,VALID,0,VALID,19.2112,VALID,143,VALID,0.541061,
2007-07-11, 00:01:00,VALID,917.235,VALID,0,VALID,99.6277,VALID,0.0169808,VALID,19.2047,VALID,145,VALID,0.654119,
2007-07-11, 00:02:00,VALID,917.227,VALID,0,VALID,99.6887,VALID,-0.0169808,VALID,19.2114,VALID,146,VALID,0.642113,
2007-07-11, 00:03:00,VALID,917.201,VALID,0,VALID,99.6887,VALID,-0.0169808,VALID,19.2147,VALID,155,VALID,0.622569,
2007-07-11, 00:04:00,VALID,917.183,VALID,0,VALID,99.6798,VALID,0.0169808,VALID,19.2144,VALID,156,VALID,0.405506,
2007-07-11, 00:05:00,VALID,917.163,VALID,0,VALID,99.6455,VALID,-0.0339617,VALID,19.2177,VALID,161,VALID,0.492773,
2007-07-11, 00:06:00,VALID,917.121,VALID,0,VALID,99.5857,VALID,0,VALID,19.2209,VALID,152,VALID,0.736458,
2007-07-11, 00:07:00,VALID,917.091,VALID,0,VALID,99.5107,VALID,0.0169808,VALID,19.2309,VALID,153,VALID,0.688058,
2007-07-11, 00:08:00,VALID,917.086,VALID,0,VALID,99.4725,VALID,0,VALID,19.2182,VALID,139,VALID,0.557351,
2007-07-11, 00:09:00,VALID,917.07,VALID,0,VALID,99.2208,VALID,-0.0169808,VALID,19.1755,VALID,136,VALID,0.170759,
2007-07-11, 00:10:00,VALID,917.067,VALID,0,VALID,98.4184,VALID,-0.0169808,VALID,19.0717,VALID,136,VALID,0,
2007-07-11, 00:11:00,VALID,917.053,VALID,0,VALID,98.1246,VALID,0,VALID,18.9749,VALID,136,VALID,0,
2007-07-11, 00:12:00,VALID,917.039,VALID,0,VALID,98.571,VALID,-0.0169808,VALID,18.9355,VALID,136,VALID,0,
2007-07-11, 00:13:00,VALID,917.029,VALID,0,VALID,98.9092,VALID,0,VALID,18.9452,VALID,136,VALID,0,
2007-07-11, 00:14:00,VALID,917.008,VALID,0,VALID,99.1724,VALID,0,VALID,18.9549,VALID,136,VALID,0,
2007-07-11, 00:15:00,VALID,916.987,VALID,0,VALID,99.4051,VALID,-0.0169808,VALID,18.9746,VALID,136,VALID,0,
2007-07-11, 00:16:00,VALID,916.99,VALID,0,VALID,99.517,VALID,0,VALID,19.0008,VALID,136,VALID,0,
2007-07-11, 00:17:00,VALID,916.965,VALID,0,VALID,99.3581,VALID,0.0169808,VALID,18.9971,VALID,136,VALID,0,
2007-07-11, 00:18:00,VALID,916.958,VALID,0,VALID,98.9156,VALID,0,VALID,18.9582,VALID,136,VALID,0,
2007-07-11, 00:19:00,VALID,916.95,VALID,0,VALID,98.6409,VALID,-0.0339617,VALID,18.923,VALID,136,VALID,0,
2007-07-11, 00:20:00,VALID,916.946,VALID,0,VALID,99.1368,VALID,-0.0339617,VALID,18.9454,VALID,136,VALID,0,
2007-07-11, 00:21:00,VALID,916.946,VALID,0,VALID,99.1852,VALID,0.0169808,VALID,18.9552,VALID,136,VALID,0,
2007-07-11, 00:22:00,VALID,916.945,VALID,0,VALID,99.1991,VALID,0,VALID,18.9517,VALID,136,VALID,0,
2007-07-11, 00:23:00,VALID,916.95,VALID,0,VALID,99.1483,VALID,0,VALID,18.9549,VALID,136,VALID,0,
2007-07-11, 00:24:00,VALID,916.952,VALID,0,VALID,99.0605,VALID,-0.0169808,VALID,18.9582,VALID,136,VALID,0,
2007-07-11, 00:25:00,VALID,916.968,VALID,0,VALID,99.2042,VALID,-0.0169808,VALID,18.9714,VALID,136,VALID,0,
2007-07-11, 00:26:00,VALID,916.991,VALID,0,VALID,99.2093,VALID,0,VALID,18.9617,VALID,136,VALID,0,
2007-07-11, 00:27:00,VALID,917.015,VALID,0,VALID,99.2513,VALID,0,VALID,18.9876,VALID,136,VALID,0,
2007-07-11, 00:28:00,VALID,917.023,VALID,0,VALID,99.353,VALID,0,VALID,19.0036,VALID,136,VALID,0,
2007-07-11, 00:29:00,VALID,917.028,VALID,0,VALID,99.3072,VALID,-0.0169808,VALID,19.0136,VALID,136,VALID,0.116997,
2007-07-11, 00:30:00,VALID,917.026,VALID,0,VALID,99.2284,VALID,-0.101885,VALID,18.9821,VALID,136,VALID,0.696837,
2007-07-11, 00:31:00,VALID,917.006,VALID,0,VALID,99.4585,VALID,-0.0849042,VALID,18.9659,VALID,136,VALID,0.838867,
2007-07-11, 00:32:00,VALID,916.979,VALID,0,VALID,99.4318,VALID,-0.0509425,VALID,18.9432,VALID,133,VALID,0.82207,
2007-07-11, 00:33:00,VALID,916.966,VALID,0,VALID,99.5832,VALID,-0.0679233,VALID,18.9367,VALID,134,VALID,0.68532,
2007-07-11, 00:34:00,VALID,916.941,VALID,0,VALID,99.6226,VALID,-0.0509425,VALID,18.923,VALID,143,VALID,0.840116,
2007-07-11, 00:35:00,VALID,916.893,VALID,0,VALID,99.7625,VALID,-0.0339617,VALID,18.9367,VALID,150,VALID,0.97923,
2007-07-11, 00:36:00,VALID,916.863,VALID,0,VALID,99.9354,VALID,-0.0509425,VALID,18.9429,VALID,150,VALID,1.05131,
2007-07-11, 00:37:00,VALID,916.813,VALID,0,VALID,99.9608,VALID,-0.0679233,VALID,18.9561,VALID,150,VALID,1.04802,
2007-07-11, 00:38:00,VALID,916.797,VALID,0,VALID,99.9692,VALID,-0.0679233,VALID,18.9464,VALID,143,VALID,0.962054,
2007-07-11, 00:39:00,VALID,916.773,VALID,0,VALID,100,VALID,-0.0509425,VALID,18.9429,VALID,141,VALID,0.898251,
2007-07-11, 00:40:00,VALID,916.77,VALID,0,VALID,100,VALID,-0.0339617,VALID,18.9856,VALID,134,VALID,0.732986,
2007-07-11, 00:41:00,VALID,916.776,VALID,0,VALID,100,VALID,-0.0509425,VALID,18.9918,VALID,131,VALID,0.785714,
2007-07-11, 00:42:00,VALID,916.762,VALID,0,VALID,99.9977,VALID,-0.0509425,VALID,18.9694,VALID,130,VALID,0.927507,
2007-07-11, 00:43:00,VALID,916.754,VALID,0,VALID,100,VALID,-0.0509425,VALID,18.9953,VALID,118,VALID,1.02089,
2007-07-11, 00:44:00,VALID,916.749,VALID,0,VALID,100,VALID,-0.0169808,VALID,18.9721,VALID,112,VALID,1.07906,
2007-07-11, 00:45:00,VALID,916.742,VALID,0,VALID,100,VALID,0.0169808,VALID,18.9776,VALID,113,VALID,1.1609,
2007-07-11, 00:46:00,VALID,916.751,VALID,0,VALID,100,VALID,0.0169808,VALID,19.0071,VALID,113,VALID,1.07146,
2007-07-11, 00:47:00,VALID,916.754,VALID,0,VALID,100,VALID,0.0339617,VALID,19.0133,VALID,115,VALID,0.772866,
2007-07-11, 00:48:00,VALID,916.754,VALID,0,VALID,100,VALID,0.0169808,VALID,19.0066,VALID,116,VALID,0.540879,
2007-07-11, 00:49:00,VALID,916.763,VALID,0,VALID,100,VALID,0.0169808,VALID,19.0068,VALID,116,VALID,0.363636,
2007-07-11, 00:50:00,VALID,916.779,VALID,0,VALID,99.9629,VALID,0,VALID,18.9971,VALID,116,VALID,0.1633,
2007-07-11, 00:51:00,VALID,916.781,VALID,0,VALID,99.8349,VALID,0,VALID,18.9644,VALID,117,VALID,0.46441,
2007-07-11, 00:52:00,VALID,916.779,VALID,0,VALID,99.9303,VALID,0.0339617,VALID,18.9547,VALID,142,VALID,0.675781,
2007-07-11, 00:53:00,VALID,916.75,VALID,0,VALID,99.9659,VALID,0.0339617,VALID,18.9517,VALID,160,VALID,0.756696,
2007-07-11, 00:54:00,VALID,916.743,VALID,0,VALID,99.9786,VALID,0.0169808,VALID,18.9482,VALID,159,VALID,0.86843,
2007-07-11, 00:55:00,VALID,916.715,VALID,0,VALID,99.9568,VALID,0,VALID,18.9188,VALID,154,VALID,0.842634,
2007-07-11, 00:56:00,VALID,916.703,VALID,0,VALID,100,VALID,0.0169808,VALID,18.9095,VALID,154,VALID,0.741044,
2007-07-11, 00:57:00,VALID,916.695,VALID,0,VALID,100,VALID,0.0509425,VALID,18.8868,VALID,154,VALID,0.609756,
2007-07-11, 00:58:00,VALID,916.692,VALID,0,VALID,100,VALID,0.0169808,VALID,18.8771,VALID,154,VALID,0.609375,
2007-07-11, 00:59:00,VALID,916.699,VALID,0,VALID,100,VALID,0,VALID,18.8641,VALID,152,VALID,0.678234,
2007-07-11, 01:00:00,VALID,916.699,VALID,0,VALID,100,VALID,-0.0169808,VALID,18.8588,VALID,151,VALID,0.800781,
2007-07-11, 01:01:00,VALID,916.704,VALID,0,VALID,100,VALID,-0.0509425,VALID,18.8389,VALID,148,VALID,0.713542,
2007-07-11, 01:02:00,VALID,916.691,VALID,0,VALID,100,VALID,-0.101885,VALID,18.8231,VALID,148,VALID,0.443004,
2007-07-11, 01:03:00,VALID,916.679,VALID,0,VALID,99.8863,VALID,-0.0679233,VALID,18.7682,VALID,148,VALID,0.397656,
2007-07-11, 01:04:00,VALID,916.656,VALID,0,VALID,99.5298,VALID,-0.0679233,VALID,18.6774,VALID,138,VALID,0.484908,
2007-07-11, 01:05:00,VALID,916.639,VALID,0,VALID,99.573,VALID,-0.0509425,VALID,18.6383,VALID,98,VALID,0.72168,
2007-07-11, 01:06:00,VALID,916.616,VALID,0,VALID,99.9166,VALID,-0.0849042,VALID,18.661,VALID,85,VALID,0.993096,
2007-07-11, 01:07:00,VALID,916.602,VALID,0,VALID,100,VALID,-0.0679233,VALID,18.7455,VALID,103,VALID,0.982558,
2007-07-11, 01:08:00,VALID,916.591,VALID,0,VALID,100,VALID,-0.0339617,VALID,18.7977,VALID,104,VALID,0.998438,
2007-07-11, 01:09:00,VALID,916.573,VALID,0,VALID,100,VALID,-0.0169808,VALID,18.8394,VALID,99,VALID,0.969638,
2007-07-11, 01:10:00,VALID,916.565,VALID,0,VALID,100,VALID,-0.0679233,VALID,18.8296,VALID,89,VALID,0.920201,
2007-07-11, 01:11:00,VALID,916.561,VALID,0,VALID,100,VALID,-0.101885,VALID,18.8364,VALID,83,VALID,0.949128,
2007-07-11, 01:12:00,VALID,916.561,VALID,0,VALID,100,VALID,-0.101885,VALID,18.8658,VALID,83,VALID,0.868924,
2007-07-11, 01:13:00,VALID,916.536,VALID,0,VALID,100,VALID,-0.101885,VALID,18.8688,VALID,83,VALID,0.808949,
2007-07-11, 01:14:00,VALID,916.512,VALID,0,VALID,100,VALID,-0.0509425,VALID,18.8718,VALID,83,VALID,0.63899,
2007-07-11, 01:15:00,VALID,916.48,VALID,0,VALID,99.9751,VALID,0,VALID,18.8803,VALID,83,VALID,0.55625,
2007-07-11, 01:16:00,VALID,916.451,VALID,0,VALID,99.8032,VALID,0,VALID,18.8609,VALID,83,VALID,0.615282,
2007-07-11, 01:17:00,VALID,916.417,VALID,0,VALID,99.9914,VALID,0,VALID,18.8739,VALID,83,VALID,0.503906,
2007-07-11, 01:18:00,VALID,916.391,VALID,0,VALID,99.9908,VALID,0.0169808,VALID,18.8868,VALID,83,VALID,0.490007,
2007-07-11, 01:19:00,VALID,916.368,VALID,0,VALID,99.8756,VALID,-0.0169808,VALID,18.8771,VALID,83,VALID,0.292039,
2007-07-11, 01:20:00,VALID,916.345,VALID,0,VALID,99.6429,VALID,0,VALID,18.8414,VALID,83,VALID,0.0417878,
2007-07-11, 01:21:00,VALID,916.329,VALID,0,VALID,99.4573,VALID,0,VALID,18.8062,VALID,83,VALID,0,
2007-07-11, 01:22:00,VALID,916.322,VALID,0,VALID,99.4204,VALID,0,VALID,18.7898,VALID,83,VALID,0,
2007-07-11, 01:23:00,VALID,916.298,VALID,0,VALID,99.3479,VALID,-0.0339617,VALID,18.7735,VALID,83,VALID,0,
2007-07-11, 01:24:00,VALID,916.299,VALID,0,VALID,99.3683,VALID,-0.0339617,VALID,18.7638,VALID,83,VALID,0,
2007-07-11, 01:25:00,VALID,916.295,VALID,0,VALID,99.4001,VALID,-0.0339617,VALID,18.7608,VALID,83,VALID,0,
2007-07-11, 01:26:00,VALID,916.307,VALID,0,VALID,99.2538,VALID,-0.0169808,VALID,18.7281,VALID,83,VALID,0,
2007-07-11, 01:27:00,VALID,916.29,VALID,0,VALID,99.1674,VALID,-0.0679233,VALID,18.6955,VALID,83,VALID,0,
2007-07-11, 01:28:00,VALID,916.273,VALID,0,VALID,99.0923,VALID,0,VALID,18.6728,VALID,83,VALID,0,
2007-07-11, 01:29:00,VALID,916.255,VALID,0,VALID,99.0427,VALID,0,VALID,18.6431,VALID,83,VALID,0,
2007-07-11, 01:30:00,VALID,916.236,VALID,0,VALID,98.9397,VALID,0,VALID,18.6274,VALID,83,VALID,0,
2007-07-11, 01:31:00,VALID,916.219,VALID,0,VALID,98.8545,VALID,0.0339617,VALID,18.6016,VALID,83,VALID,0,
2007-07-11, 01:32:00,VALID,916.226,VALID,0,VALID,98.8189,VALID,-0.0169808,VALID,18.5755,VALID,83,VALID,0,
2007-07-11, 01:33:00,VALID,916.223,VALID,0,VALID,98.8406,VALID,0,VALID,18.5493,VALID,83,VALID,0,
2007-07-11, 01:34:00,VALID,916.234,VALID,0,VALID,98.866,VALID,-0.0169808,VALID,18.5497,VALID,83,VALID,0,
2007-07-11, 01:35:00,VALID,916.254,VALID,0,VALID,98.955,VALID,0,VALID,18.543,VALID,21,VALID,0.518973,
2007-07-11, 01:36:00,VALID,916.237,VALID,0,VALID,99.9509,VALID,0,VALID,18.6174,VALID,312,VALID,0.686012,
2007-07-11, 01:37:00,VALID,916.25,VALID,0,VALID,100,VALID,0.0339617,VALID,18.7147,VALID,312,VALID,0.314453,
2007-07-11, 01:38:00,VALID,916.239,VALID,0,VALID,100,VALID,0,VALID,18.783,VALID,312,VALID,0.160252,
2007-07-11, 01:39:00,VALID,916.25,VALID,0,VALID,100,VALID,-0.0169808,VALID,18.8284,VALID,312,VALID,0.255022,
2007-07-11, 01:40:00,VALID,916.263,VALID,0,VALID,100,VALID,0,VALID,18.8412,VALID,312,VALID,0,
2007-07-11, 01:41:00,VALID,916.27,VALID,0,VALID,100,VALID,0.0169808,VALID,18.8449,VALID,312,VALID,0,
2007-07-11, 01:42:00,VALID,916.282,VALID,0,VALID,100,VALID,0.0169808,VALID,18.8215,VALID,312,VALID,0,
2007-07-11, 01:43:00,VALID,916.269,VALID,0,VALID,100,VALID,0.0169808,VALID,18.8152,VALID,312,VALID,0,
2007-07-11, 01:44:00,VALID,916.26,VALID,0,VALID,100,VALID,0.0169808,VALID,18.812,VALID,312,VALID,0,
2007-07-11, 01:45:00,VALID,916.237,VALID,0,VALID,99.9357,VALID,0,VALID,18.7763,VALID,312,VALID,0.0183503,
2007-07-11, 01:46:00,VALID,916.236,VALID,0,VALID,99.6137,VALID,-0.0169808,VALID,18.6758,VALID,312,VALID,0.432049,
2007-07-11, 01:47:00,VALID,916.228,VALID,0,VALID,99.5743,VALID,0,VALID,18.6077,VALID,312,VALID,0.451172,
2007-07-11, 01:48:00,VALID,916.221,VALID,0,VALID,99.6633,VALID,0,VALID,18.5528,VALID,312,VALID,0.480741,
2007-07-11, 01:49:00,VALID,916.214,VALID,0,VALID,99.8639,VALID,-0.0169808,VALID,18.5074,VALID,312,VALID,0.495536,
2007-07-11, 01:50:00,VALID,916.217,VALID,0,VALID,100,VALID,0,VALID,18.4812,VALID,312,VALID,0.294327,
2007-07-11, 01:51:00,VALID,916.227,VALID,0,VALID,100,VALID,-0.0169808,VALID,18.4745,VALID,274,VALID,0.335565,
2007-07-11, 01:52:00,VALID,916.223,VALID,0,VALID,100,VALID,0.0169808,VALID,18.4745,VALID,255,VALID,0.199491,
2007-07-11, 01:53:00,VALID,916.24,VALID,0,VALID,100,VALID,0,VALID,18.4747,VALID,255,VALID,0.380208,
2007-07-11, 01:54:00,VALID,916.241,VALID,0,VALID,100,VALID,0.0339617,VALID,18.4745,VALID,255,VALID,0.446314,
2007-07-11, 01:55:00,VALID,916.247,VALID,0,VALID,100,VALID,0,VALID,18.4879,VALID,255,VALID,0.471608,
2007-07-11, 01:56:00,VALID,916.257,VALID,0,VALID,100,VALID,0.0339617,VALID,18.4675,VALID,252,VALID,0.455305,
2007-07-11, 01:57:00,VALID,916.251,VALID,0,VALID,100,VALID,0.0169808,VALID,18.4291,VALID,245,VALID,0.258721,
2007-07-11, 01:58:00,VALID,916.263,VALID,0,VALID,100,VALID,0.0169808,VALID,18.3834,VALID,245,VALID,0.337028,
2007-07-11, 01:59:00,VALID,916.249,VALID,0,VALID,100,VALID,-0.0509425,VALID,18.4064,VALID,245,VALID,0.11471,
2007-07-11, 02:00:00,VALID,916.252,VALID,0,VALID,100,VALID,0,VALID,18.4522,VALID,245,VALID,0.11772,
2007-07-11, 02:01:00,VALID,916.256,VALID,0,VALID,100,VALID,0.0339617,VALID,18.5168,VALID,245,VALID,0.309411,
2007-07-11, 02:02:00,VALID,916.269,VALID,0,VALID,100,VALID,0.0169808,VALID,18.5032,VALID,245,VALID,0.0825195,
2007-07-11, 02:03:00,VALID,916.293,VALID,0,VALID,100,VALID,0.0169808,VALID,18.4911,VALID,245,VALID,0.0331101,
2007-07-11, 02:04:00,VALID,916.303,VALID,0,VALID,100,VALID,0.0169808,VALID,18.4779,VALID,245,VALID,0,
2007-07-11, 02:05:00,VALID,916.315,VALID,0,VALID,100,VALID,0,VALID,18.4682,VALID,245,VALID,0,
2007-07-11, 02:06:00,VALID,916.3,VALID,0,VALID,100,VALID,0,VALID,18.4937,VALID,245,VALID,0,
2007-07-11, 02:07:00,VALID,916.299,VALID,0,VALID,100,VALID,0.0169808,VALID,18.5358,VALID,245,VALID,0,
2007-07-11, 02:08:00,VALID,916.295,VALID,0,VALID,100,VALID,0.0339617,VALID,18.549,VALID,245,VALID,0,
2007-07-11, 02:09:00,VALID,916.299,VALID,0,VALID,100,VALID,-0.0169808,VALID,18.5263,VALID,245,VALID,0,
2007-07-11, 02:10:00,VALID,916.31,VALID,0,VALID,100,VALID,-0.0339617,VALID,18.4976,VALID,245,VALID,0,
2007-07-11, 02:11:00,VALID,916.309,VALID,0,VALID,100,VALID,0,VALID,18.4777,VALID,245,VALID,0,
2007-07-11, 02:12:00,VALID,916.31,VALID,0,VALID,100,VALID,0.0339617,VALID,18.484,VALID,245,VALID,0,
2007-07-11, 02:13:00,VALID,916.3,VALID,0,VALID,100,VALID,0,VALID,18.4802,VALID,245,VALID,0,
2007-07-11, 02:14:00,VALID,916.307,VALID,0,VALID,100,VALID,0,VALID,18.4582,VALID,245,VALID,0,
2007-07-11, 02:15:00,VALID,916.293,VALID,0,VALID,100,VALID,-0.0339617,VALID,18.4365,VALID,245,VALID,0,
2007-07-11, 02:16:00,VALID,916.28,VALID,0,VALID,100,VALID,-0.0339617,VALID,18.4534,VALID,245,VALID,0.0559896,
2007-07-11, 02:17:00,VALID,916.248,VALID,0,VALID,100,VALID,-0.0679233,VALID,18.4726,VALID,245,VALID,0.321948,
2007-07-11, 02:18:00,VALID,916.203,VALID,0,VALID,100,VALID,-0.0679233,VALID,18.5275,VALID,245,VALID,0.46439,
2007-07-11, 02:19:00,VALID,916.161,VALID,0,VALID,100,VALID,-0.0339617,VALID,18.5725,VALID,245,VALID,0.517805,
2007-07-11, 02:20:00,VALID,916.114,VALID,0,VALID,100,VALID,-0.0339617,VALID,18.5952,VALID,244,VALID,0.570313,
2007-07-11, 02:21:00,VALID,916.076,VALID,0,VALID,100,VALID,-0.0339617,VALID,18.6311,VALID,200,VALID,0.462754,
2007-07-11, 02:22:00,VALID,916.043,VALID,0,VALID,100,VALID,-0.0509425,VALID,18.6146,VALID,194,VALID,0.515625,
2007-07-11, 02:23:00,VALID,916,VALID,0,VALID,100,VALID,-0.0509425,VALID,18.6545,VALID,191,VALID,0.664608,
2007-07-11, 02:24:00,VALID,915.977,VALID,0,VALID,100,VALID,-0.0849042,VALID,18.6508,VALID,183,VALID,0.682422,
2007-07-11, 02:25:00,VALID,915.958,VALID,0,VALID,100,VALID,-0.0339617,VALID,18.5984,VALID,117,VALID,0.719703,
2007-07-11, 02:26:00,VALID,915.936,VALID,0,VALID,100,VALID,-0.0169808,VALID,18.6149,VALID,111,VALID,0.779344,
2007-07-11, 02:27:00,VALID,915.919,VALID,0,VALID,100,VALID,-0.0169808,VALID,18.6832,VALID,106,VALID,0.92569,
2007-07-11, 02:28:00,VALID,915.89,VALID,0,VALID,100,VALID,-0.0679233,VALID,18.7346,VALID,104,VALID,0.992188,
2007-07-11, 02:29:00,VALID,915.885,VALID,0,VALID,100,VALID,-0.0509425,VALID,18.7868,VALID,101,VALID,0.79633,
2007-07-11, 02:30:00,VALID,915.87,VALID,0,VALID,100,VALID,0.0509425,VALID,18.7756,VALID,100,VALID,0.625195,
2007-07-11, 02:31:00,VALID,915.859,VALID,0,VALID,100,VALID,0.0849042,VALID,18.7531,VALID,100,VALID,0.764291,
2007-07-11, 02:32:00,VALID,915.852,VALID,0,VALID,100,VALID,0.0679233,VALID,18.7369,VALID,100,VALID,1.03034,
2007-07-11, 02:33:00,VALID,915.835,VALID,0,VALID,100,VALID,0.0849042,VALID,18.7277,VALID,100,VALID,1.11261,
2007-07-11, 02:34:00,VALID,915.818,VALID,0,VALID,100,VALID,0.0339617,VALID,18.6985,VALID,98,VALID,1.01848,
2007-07-11, 02:35:00,VALID,915.809,VALID,0,VALID,100,VALID,0.0169808,VALID,18.6531,VALID,109,VALID,1.07104,
2007-07-11, 02:36:00,VALID,915.822,VALID,0,VALID,100,VALID,0.0339617,VALID,18.585,VALID,129,VALID,1.24293,
2007-07-11, 02:37:00,VALID,915.823,VALID,0,VALID,100,VALID,0.0849042,VALID,18.5261,VALID,136,VALID,1.0158,
2007-07-11, 02:38:00,VALID,915.835,VALID,0,VALID,100,VALID,0.0169808,VALID,18.4645,VALID,153,VALID,0.720703,
2007-07-11, 02:39:00,VALID,915.84,VALID,0,VALID,100,VALID,0.0509425,VALID,18.4321,VALID,160,VALID,0.886814,
2007-07-11, 02:40:00,VALID,915.854,VALID,0,VALID,100,VALID,0.0169808,VALID,18.3799,VALID,159,VALID,0.741097,
2007-07-11, 02:41:00,VALID,915.842,VALID,0,VALID,100,VALID,0.0339617,VALID,18.3477,VALID,158,VALID,0.510617,
2007-07-11, 02:42:00,VALID,915.859,VALID,0,VALID,100,VALID,0.0509425,VALID,18.3285,VALID,158,VALID,0.269903,
2007-07-11, 02:43:00,VALID,915.849,VALID,0,VALID,100,VALID,0.0339617,VALID,18.3056,VALID,158,VALID,0,
2007-07-11, 02:44:00,VALID,915.838,VALID,0,VALID,100,VALID,0,VALID,18.2829,VALID,158,VALID,0,
2007-07-11, 02:45:00,VALID,915.824,VALID,0,VALID,100,VALID,0,VALID,18.265,VALID,158,VALID,0.00106534,
2007-07-11, 02:46:00,VALID,915.812,VALID,0,VALID,100,VALID,-0.0339617,VALID,18.2514,VALID,158,VALID,0.00290698,
2007-07-11, 02:47:00,VALID,915.805,VALID,0,VALID,100,VALID,-0.0679233,VALID,18.2655,VALID,181,VALID,0.0670732,
2007-07-11, 02:48:00,VALID,915.798,VALID,0,VALID,100,VALID,-0.0679233,VALID,18.3167,VALID,258,VALID,0.255382,
2007-07-11, 02:49:00,VALID,915.804,VALID,0,VALID,100,VALID,-0.0679233,VALID,18.3853,VALID,266,VALID,0,
2007-07-11, 02:50:00,VALID,915.819,VALID,0,VALID,100,VALID,-0.0849042,VALID,18.4437,VALID,266,VALID,0.00104167,
2007-07-11, 02:51:00,VALID,915.82,VALID,0,VALID,100,VALID,-0.0169808,VALID,18.4858,VALID,266,VALID,0.0726563,
2007-07-11, 02:52:00,VALID,915.827,VALID,0,VALID,100,VALID,-0.0509425,VALID,18.4856,VALID,266,VALID,0.000976563,
2007-07-11, 02:53:00,VALID,915.824,VALID,0,VALID,100,VALID,-0.0679233,VALID,18.3818,VALID,266,VALID,0.000173611,
2007-07-11, 02:54:00,VALID,915.845,VALID,0,VALID,100,VALID,-0.0339617,VALID,18.3135,VALID,266,VALID,0.152058,
2007-07-11, 02:55:00,VALID,915.85,VALID,0,VALID,100,VALID,-0.0169808,VALID,18.284,VALID,286,VALID,0.398619,
2007-07-11, 02:56:00,VALID,915.858,VALID,0,VALID,100,VALID,-0.0339617,VALID,18.3586,VALID,293,VALID,0.266197,
2007-07-11, 02:57:00,VALID,915.868,VALID,0,VALID,100,VALID,-0.0679233,VALID,18.411,VALID,293,VALID,0.190044,
2007-07-11, 02:58:00,VALID,915.873,VALID,0,VALID,100,VALID,-0.0339617,VALID,18.4397,VALID,293,VALID,0.0447266,
2007-07-11, 02:59:00,VALID,915.88,VALID,0,VALID,100,VALID,-0.0169808,VALID,18.4689,VALID,293,VALID,0.0597098,
2007-07-11, 03:00:00,VALID,915.885,VALID,0,VALID,100,VALID,-0.0339617,VALID,18.4624,VALID,286,VALID,0.290777,
2007-07-11, 03:01:00,VALID,915.874,VALID,0,VALID,100,VALID,-0.0339617,VALID,18.4694,VALID,209,VALID,0.461301,
2007-07-11, 03:02:00,VALID,915.85,VALID,0,VALID,100,VALID,-0.101885,VALID,18.4596,VALID,161,VALID,0.866235,
2007-07-11, 03:03:00,VALID,915.833,VALID,0,VALID,100,VALID,-0.0849042,VALID,18.4302,VALID,150,VALID,0.970312,
2007-07-11, 03:04:00,VALID,915.798,VALID,0,VALID,100,VALID,-0.0849042,VALID,18.4277,VALID,144,VALID,0.67866,
2007-07-11, 03:05:00,VALID,915.771,VALID,0,VALID,100,VALID,-0.0679233,VALID,18.42,VALID,146,VALID,0.393601,
2007-07-11, 03:06:00,VALID,915.729,VALID,0,VALID,100,VALID,-0.0339617,VALID,18.4664,VALID,159,VALID,0.616997,
2007-07-11, 03:07:00,VALID,915.684,VALID,0,VALID,100,VALID,0,VALID,18.4981,VALID,152,VALID,0.420422,
2007-07-11, 03:08:00,VALID,915.652,VALID,0,VALID,100,VALID,-0.0679233,VALID,18.525,VALID,152,VALID,0.459766,
2007-07-11, 03:09:00,VALID,915.616,VALID,0,VALID,100,VALID,-0.0169808,VALID,18.5312,VALID,152,VALID,0.617989,
2007-07-11, 03:10:00,VALID,915.598,VALID,0,VALID,100,VALID,-0.0679233,VALID,18.55,VALID,160,VALID,0.403343,
2007-07-11, 03:11:00,VALID,915.59,VALID,0,VALID,100,VALID,-0.0509425,VALID,18.5535,VALID,164,VALID,0.544695,
2007-07-11, 03:12:00,VALID,915.57,VALID,0,VALID,100,VALID,0,VALID,18.5727,VALID,164,VALID,0.258594,
2007-07-11, 03:13:00,VALID,915.556,VALID,0,VALID,100,VALID,-0.0339617,VALID,18.6156,VALID,164,VALID,0,
2007-07-11, 03:14:00,VALID,915.538,VALID,0,VALID,100,VALID,-0.0169808,VALID,18.6438,VALID,164,VALID,0,
2007-07-11, 03:15:00,VALID,915.525,VALID,0,VALID,100,VALID,-0.0169808,VALID,18.666,VALID,164,VALID,0.0012429,
2007-07-11, 03:16:00,VALID,915.507,VALID,0,VALID,100,VALID,0,VALID,18.7022,VALID,164,VALID,0,
2007-07-11, 03:17:00,VALID,915.48,VALID,0,VALID,100,VALID,0,VALID,18.6596,VALID,164,VALID,0,
2007-07-11, 03:18:00,VALID,915.462,VALID,0,VALID,100,VALID,0,VALID,18.6987,VALID,164,VALID,0,
2007-07-11, 03:19:00,VALID,915.429,VALID,0,VALID,100,VALID,-0.0339617,VALID,18.7216,VALID,153,VALID,0.209263,
2007-07-11, 03:20:00,VALID,915.401,VALID,0,VALID,100,VALID,-0.0169808,VALID,18.7179,VALID,120,VALID,0.535457,
2007-07-11, 03:21:00,VALID,915.377,VALID,0,VALID,100,VALID,-0.0169808,VALID,18.7311,VALID,80,VALID,0.696094,
2007-07-11, 03:22:00,VALID,915.352,VALID,0,VALID,100,VALID,-0.0169808,VALID,18.7117,VALID,60,VALID,0.922852,
2007-07-11, 03:23:00,VALID,915.318,VALID,0,VALID,100,VALID,-0.0339617,VALID,18.7279,VALID,42,VALID,1.02668,
2007-07-11, 03:24:00,VALID,915.292,VALID,0,VALID,100,VALID,0.0169808,VALID,18.7925,VALID,41,VALID,1.06008,
2007-07-11, 03:25:00,VALID,915.268,VALID,0,VALID,100,VALID,0,VALID,18.8314,VALID,40,VALID,0.856399,
2007-07-11, 03:26:00,VALID,915.259,VALID,0,VALID,100,VALID,0.0169808,VALID,18.8569,VALID,40,VALID,0.630269,
2007-07-11, 03:27:00,VALID,915.271,VALID,0,VALID,100,VALID,0.0169808,VALID,18.925,VALID,51,VALID,0.634084,
2007-07-11, 03:28:00,VALID,915.28,VALID,0,VALID,99.8121,VALID,0.0169808,VALID,18.9607,VALID,103,VALID,0.679688,
2007-07-11, 03:29:00,VALID,915.277,VALID,0,VALID,99.4662,VALID,-0.0169808,VALID,18.9973,VALID,124,VALID,0.915587,
2007-07-11, 03:30:00,VALID,915.271,VALID,0,VALID,99.1063,VALID,0.0169808,VALID,18.9677,VALID,142,VALID,1.03702,
2007-07-11, 03:31:00,VALID,915.264,VALID,0,VALID,99.0453,VALID,-0.0169808,VALID,18.9225,VALID,147,VALID,1.06473,
2007-07-11, 03:32:00,VALID,915.251,VALID,0,VALID,99.25,VALID,-0.0339617,VALID,18.8609,VALID,154,VALID,0.988368,
2007-07-11, 03:33:00,VALID,915.249,VALID,0,VALID,99.6073,VALID,-0.0169808,VALID,18.8284,VALID,154,VALID,0.870236,
2007-07-11, 03:34:00,VALID,915.23,VALID,0,VALID,99.8604,VALID,-0.0169808,VALID,18.8317,VALID,154,VALID,0.523074,
2007-07-11, 03:35:00,VALID,915.187,VALID,0,VALID,99.8973,VALID,-0.0169808,VALID,18.8447,VALID,154,VALID,0.34702,
2007-07-11, 03:36:00,VALID,915.162,VALID,0,VALID,99.7943,VALID,-0.0169808,VALID,18.8609,VALID,108,VALID,0.448103,
2007-07-11, 03:37:00,VALID,915.154,VALID,0,VALID,99.5768,VALID,-0.0169808,VALID,18.8676,VALID,60,VALID,0.556445,
2007-07-11, 03:38:00,VALID,915.153,VALID,0,VALID,99.6048,VALID,0,VALID,18.8604,VALID,60,VALID,0.625,
2007-07-11, 03:39:00,VALID,915.161,VALID,0,VALID,99.456,VALID,-0.0169808,VALID,18.8871,VALID,60,VALID,0.445313,
2007-07-11, 03:40:00,VALID,915.162,VALID,0,VALID,99.0885,VALID,-0.0679233,VALID,18.8224,VALID,60,VALID,0.442969,
2007-07-11, 03:41:00,VALID,915.187,VALID,0,VALID,99.3594,VALID,-0.0169808,VALID,18.8187,VALID,62,VALID,0.654046,